| time (UTC) | temp F | wind direction | speed knots | gust knots | rain 1hr in | rain 24hr in | rain mn in | humidity % | barometer mb |
| 20260509004529 | 50 | 80 | 0.0 | 0.0 | 0.00 | 0.11 | 0.01 | 79 | 1011.0 |
| 20260509003026 | 51 | 80 | 0.0 | 0.0 | 0.00 | 0.11 | 0.01 | 79 | 1010.8 |
| 20260509001526 | 50 | 80 | 0.0 | 0.9 | 0.01 | 0.11 | 0.01 | 80 | 1010.6 |
| 20260509000025 | 50 | 80 | 0.0 | 2.6 | 0.01 | 0.11 | 0.01 | 81 | 1010.7 |
| 20260508234526 | 50 | 131 | 0.0 | 2.6 | 0.01 | 0.11 | 0.01 | 80 | 1010.4 |
| 20260508233026 | 51 | 143 | 0.0 | 2.6 | 0.01 | 0.11 | 0.01 | 77 | 1010.2 |
| 20260508231525 | 54 | 175 | 0.0 | 4.3 | 0.00 | 0.10 | 0.00 | 67 | 1010.2 |
| 20260508230036 | 56 | 110 | 0.9 | 5.2 | 0.00 | 0.10 | 0.00 | 55 | 1010.0 |
| 20260508224534 | 57 | 281 | 0.0 | 0.9 | 0.00 | 0.10 | 0.00 | 50 | 1009.7 |
| 20260508223022 | 58 | 282 | 0.0 | 0.0 | 0.00 | 0.10 | 0.00 | 53 | 1009.8 |
| 20260508221537 | 57 | 282 | 0.0 | 0.9 | 0.00 | 0.10 | 0.00 | 50 | 1009.9 |
| 20260508220021 | 57 | 281 | 0.0 | 1.7 | 0.00 | 0.10 | 0.00 | 51 | 1009.8 |
| 20260508214521 | 57 | 162 | 0.0 | 1.7 | 0.00 | 0.10 | 0.00 | 51 | 1010.1 |
| 20260508213024 | 56 | 160 | 0.0 | 1.7 | 0.00 | 0.10 | 0.00 | 52 | 1009.9 |
| 20260508211519 | 57 | 153 | 0.0 | 2.6 | 0.00 | 0.10 | 0.00 | 52 | 1010.0 |
| 20260508210020 | 57 | 277 | 0.0 | 1.7 | 0.00 | 0.10 | 0.00 | 49 | 1010.0 |
| 20260508204520 | 58 | 299 | 0.9 | 7.8 | 0.00 | 0.10 | 0.00 | 48 | 1010.0 |
| 20260508203016 | 59 | 348 | 0.0 | 4.3 | 0.00 | 0.10 | 0.00 | 50 | 1010.3 |
| 20260508201514 | 56 | 281 | 3.5 | 7.8 | 0.00 | 0.10 | 0.00 | 50 | 1010.4 |
| 20260508200013 | 56 | 213 | 2.6 | 17.4 | 0.00 | 0.10 | 0.00 | 50 | 1010.5 |
| 20260508194513 | 57 | 299 | 4.3 | 10.4 | 0.00 | 0.10 | 0.00 | 48 | 1010.6 |
| 20260508193009 | 57 | 284 | 0.9 | 10.4 | 0.00 | 0.10 | 0.00 | 54 | 1010.9 |
| 20260508191509 | 55 | 320 | 7.8 | 14.8 | 0.00 | 0.10 | 0.00 | 53 | 1011.0 |
| 20260508190008 | 56 | 289 | 5.2 | 10.4 | 0.00 | 0.10 | 0.00 | 53 | 1011.2 |
| 20260508184504 | 55 | 9 | 0.0 | 7.8 | 0.00 | 0.10 | 0.00 | 54 | 1011.5 |
| 20260508183004 | 52 | 17 | 0.9 | 9.6 | 0.00 | 0.10 | 0.00 | 61 | 1011.8 |
| 20260508181511 | 54 | 16 | 0.0 | 7.8 | 0.00 | 0.10 | 0.00 | 55 | 1011.5 |
| 20260508180001 | 54 | 355 | 0.0 | 2.6 | 0.00 | 0.10 | 0.00 | 60 | 1011.8 |
| 20260508174558 | 52 | 355 | 0.0 | 2.6 | 0.00 | 0.10 | 0.00 | 62 | 1012.0 |
| 20260508173056 | 51 | 355 | 0.0 | 2.6 | 0.00 | 0.10 | 0.00 | 65 | 1012.0 |
| 20260508171605 | 50 | 348 | 0.0 | 7.8 | 0.00 | 0.10 | 0.00 | 65 | 1012.3 |
| 20260508170059 | 50 | 337 | 1.7 | 9.6 | 0.00 | 0.10 | 0.00 | 65 | 1012.3 |
| 20260508164555 | 51 | 342 | 4.3 | 10.4 | 0.00 | 0.10 | 0.00 | 62 | 1012.3 |
| 20260508163050 | 50 | 302 | 0.9 | 7.0 | 0.00 | 0.10 | 0.00 | 68 | 1012.4 |
| 20260508161547 | 48 | 329 | 3.5 | 7.0 | 0.00 | 0.10 | 0.00 | 72 | 1012.8 |
| 20260508160048 | 47 | 312 | 6.1 | 9.6 | 0.00 | 0.10 | 0.00 | 69 | 1012.9 |
| 20260508154545 | 47 | 299 | 4.3 | 8.7 | 0.00 | 0.10 | 0.00 | 71 | 1012.8 |
| 20260508153044 | 47 | 317 | 7.0 | 12.2 | 0.00 | 0.10 | 0.00 | 69 | 1012.4 |
| 20260508151545 | 47 | 308 | 5.2 | 12.2 | 0.00 | 0.10 | 0.00 | 72 | 1012.4 |
| 20260508150044 | 46 | 292 | 0.9 | 9.6 | 0.00 | 0.10 | 0.00 | 76 | 1012.5 |
| 20260508144543 | 46 | 298 | 5.2 | 12.2 | 0.00 | 0.10 | 0.00 | 76 | 1012.4 |
| 20260508143043 | 47 | 315 | 0.9 | 7.8 | 0.00 | 0.10 | 0.00 | 74 | 1012.1 |
| 20260508141542 | 47 | 322 | 0.0 | 12.2 | 0.00 | 0.10 | 0.00 | 73 | 1011.9 |
| 20260508140041 | 48 | 284 | 5.2 | 9.6 | 0.00 | 0.10 | 0.00 | 74 | 1012.0 |
| 20260508134540 | 47 | 294 | 0.9 | 4.3 | 0.00 | 0.10 | 0.00 | 78 | 1012.1 |
| 20260508133037 | 45 | 144 | 0.0 | 4.3 | 0.00 | 0.10 | 0.00 | 82 | 1012.1 |
| 20260508131535 | 44 | 138 | 0.9 | 7.0 | 0.00 | 0.10 | 0.00 | 84 | 1012.1 |
| 20260508130044 | 44 | 194 | 0.0 | 3.5 | 0.00 | 0.10 | 0.00 | 91 | 1012.4 |
| 20260508124533 | 41 | 181 | 0.0 | 2.6 | 0.00 | 0.10 | 0.00 | 92 | 1012.2 |
| 20260508123027 | 39 | 177 | 0.0 | 2.6 | 0.00 | 0.10 | 0.00 | 93 | 1012.1 |
| 20260508121523 | 36 | 292 | 0.0 | 0.0 | 0.00 | 0.10 | 0.00 | 93 | 1012.1 |
| 20260508120021 | 35 | 292 | 0.0 | 0.0 | 0.00 | 0.11 | 0.00 | 92 | 1012.2 |
| 20260508114519 | 35 | 292 | 0.0 | 0.0 | 0.00 | 0.11 | 0.00 | 92 | 1012.4 |
| 20260508113019 | 35 | 292 | 0.0 | 0.0 | 0.00 | 0.11 | 0.00 | 92 | 1012.5 |
| 20260508111617 | 34 | 292 | 0.0 | 0.0 | 0.00 | 0.11 | 0.00 | 92 | 1012.4 |
| 20260508110015 | 34 | 292 | 0.0 | 0.0 | 0.00 | 0.11 | 0.00 | 92 | 1012.3 |
| 20260508104518 | 33 | 292 | 0.0 | 0.0 | 0.00 | 0.11 | 0.00 | 91 | 1012.1 |
| 20260508103014 | 34 | 292 | 0.0 | 0.0 | 0.00 | 0.11 | 0.00 | 90 | 1012.0 |
| 20260508101510 | 34 | 292 | 0.0 | 0.0 | 0.00 | 0.11 | 0.00 | 89 | 1012.1 |
| 20260508100013 | 35 | 292 | 0.0 | 0.0 | 0.00 | 0.11 | 0.00 | 91 | 1012.0 |
| 20260508094506 | 35 | 292 | 0.0 | 0.0 | 0.01 | 0.11 | 0.00 | 91 | 1012.0 |
| 20260508093006 | 36 | 292 | 0.0 | 0.0 | 0.01 | 0.11 | 0.00 | 92 | 1012.0 |
| 20260508091503 | 35 | 292 | 0.0 | 0.0 | 0.01 | 0.11 | 0.00 | 91 | 1012.0 |
| 20260508090002 | 36 | 292 | 0.0 | 0.0 | 0.01 | 0.11 | 0.11 | 91 | 1012.1 |
| 20260508084502 | 36 | 292 | 0.0 | 0.0 | 0.00 | 0.10 | 0.10 | 91 | 1012.1 |
| 20260508083001 | 36 | 292 | 0.0 | 0.0 | 0.00 | 0.10 | 0.10 | 92 | 1012.1 |
| 20260508081501 | 36 | 292 | 0.0 | 0.0 | 0.00 | 0.10 | 0.10 | 91 | 1012.1 |
| 20260508080110 | 36 | 292 | 0.0 | 0.0 | 0.00 | 0.10 | 0.10 | 91 | 1012.0 |
| 20260508074600 | 37 | 292 | 0.0 | 0.0 | 0.00 | 0.10 | 0.10 | 91 | 1012.1 |
| 20260508073100 | 37 | 292 | 0.0 | 0.0 | 0.00 | 0.10 | 0.10 | 91 | 1012.1 |
| 20260508071603 | 37 | 292 | 0.0 | 0.0 | 0.00 | 0.10 | 0.10 | 91 | 1011.9 |
| 20260508070142 | 36 | 292 | 0.0 | 0.0 | 0.00 | 0.10 | 0.10 | 91 | 1011.9 |
| 20260508064613 | 37 | 292 | 0.0 | 0.0 | 0.00 | 0.10 | 0.10 | 91 | 1012.1 |
| 20260508063101 | 37 | 292 | 0.0 | 0.0 | 0.00 | 0.10 | 0.10 | 91 | 1012.1 |
| 20260508061605 | 38 | 292 | 0.0 | 0.0 | 0.00 | 0.10 | 0.10 | 90 | 1012.3 |
| 20260508060058 | 38 | 292 | 0.0 | 0.0 | 0.00 | 0.10 | 0.10 | 90 | 1012.2 |
| 20260508054558 | 39 | 292 | 0.0 | 0.0 | 0.00 | 0.10 | 0.10 | 90 | 1012.1 |
| 20260508053106 | 39 | 292 | 0.0 | 0.0 | 0.00 | 0.10 | 0.10 | 90 | 1012.1 |
| 20260508051558 | 39 | 292 | 0.0 | 0.0 | 0.00 | 0.10 | 0.10 | 89 | 1012.1 |
| 20260508044557 | 40 | 292 | 0.0 | 0.0 | 0.00 | 0.10 | 0.10 | 90 | 1012.0 |
| 20260508043104 | 40 | 292 | 0.0 | 0.0 | 0.00 | 0.10 | 0.10 | 89 | 1011.8 |
| 20260508041558 | 41 | 292 | 0.0 | 0.0 | 0.00 | 0.10 | 0.10 | 90 | 1011.8 |
| 20260508040057 | 41 | 292 | 0.0 | 0.0 | 0.00 | 0.10 | 0.10 | 89 | 1011.7 |
| 20260508034557 | 41 | 292 | 0.0 | 0.0 | 0.00 | 0.10 | 0.10 | 88 | 1011.6 |
| 20260508033056 | 42 | 292 | 0.0 | 0.0 | 0.01 | 0.10 | 0.10 | 88 | 1011.7 |
| 20260508031559 | 42 | 292 | 0.0 | 0.0 | 0.01 | 0.10 | 0.10 | 88 | 1011.7 |
| 20260508030101 | 42 | 292 | 0.0 | 0.0 | 0.04 | 0.10 | 0.10 | 88 | 1011.8 |
| 20260508024559 | 42 | 298 | 0.0 | 0.0 | 0.06 | 0.10 | 0.10 | 88 | 1011.7 |
| 20260508023054 | 43 | 301 | 0.0 | 0.9 | 0.08 | 0.09 | 0.09 | 86 | 1012.1 |
| 20260508021552 | 43 | 302 | 0.0 | 7.8 | 0.08 | 0.09 | 0.09 | 85 | 1012.0 |
| 20260508020052 | 43 | 276 | 0.0 | 1.7 | 0.06 | 0.07 | 0.07 | 84 | 1011.8 |
| 20260508014553 | 43 | 248 | 6.1 | 11.3 | 0.03 | 0.04 | 0.04 | 82 | 1011.6 |
| 20260508013103 | 47 | 307 | 11.3 | 19.1 | 0.00 | 0.01 | 0.01 | 69 | 1011.1 |
| 20260508011553 | 50 | 360 | 0.0 | 0.0 | 0.00 | 0.01 | 0.01 | 63 | 1010.1 |
| 20260508010052 | 50 | 360 | 0.0 | 0.0 | 0.00 | 0.01 | 0.01 | 56 | 1009.7 |